Wind_Speed
6 4 4 5 8 10 12 12 14 15 16 19 20 21 22 22 21 19 17 17 18 16
5 3 6 6 7 9 9 11 13 15 18 19 20 21 21 23 20 18 18 14 17 15
4 5 7 6 7 7 9 11 14 16 17 19 20 20 20 21 18 18 17 15 17 13
6 6 7 7 7 8 10 13 14 16 18 20 20 20 16 18 21 18 18 15 13 13
7 7 8 8 8 8 12 14 16 18 19 19 20 17 12 16 19 18 12 10 12 12
7 8 8 8 8 11 13 15 17 17 18 19 18 14 14 13 14 11 11 11 11 14
8 8 8 8 10 12 14 16 17 16 16 17 15 15 13 11 9 9 10 11 15 18
7 8 9 9 11 13 15 15 16 16 14 15 12 7 3 8 8 10 13 15 16 15
8 9 9 11 13 15 15 15 16 15 14 12 10 7 9 5 9 14 15 14 15 15
8 9 11 13 14 15 15 16 14 13 12 11 7 8 7 7 10 13 12 13 14 15
9 11 12 14 15 15 16 14 14 14 12 10 9 10 9 9 11 11 11 12 14 14
10 12 14 15 15 15 16 14 14 13 13 11 10 11 10 10 10 10 11 13 13 12
12 13 15 15 15 16 15 14 13 12 11 12 9 9 11 10 9 10 12 12 12 11
14 16 15 15 15 17 15 12 14 11 11 12 9 11 11 11 8 9 11 12 12 10
Wind_Direction
170 207 264 275 276 290 294 298 300 299 299 299 299 298 296 294 293 291 290 287 290 290
175 232 279 271 276 284 290 293 298 300 299 300 300 299 296 291 291 289 284 287 293 278
192 261 258 260 271 285 293 298 301 302 301 301 301 299 297 295 301 301 298 299 288 286
258 232 246 266 279 291 295 300 302 302 303 302 301 296 298 301 297 292 293 285 289 291
211 237 258 270 277 289 297 301 303 305 304 302 300 302 301 292 289 284 290 295 293 294
242 259 267 271 280 294 300 302 305 306 305 303 304 303 297 293 286 290 291 302 303 298
261 266 266 271 285 297 301 302 304 305 306 309 301 294 287 289 294 306 300 301 299 306
264 257 262 274 289 293 296 298 297 297 298 307 300 302 323 316 306 298 293 305 304 304
262 258 265 280 286 290 295 294 294 300 303 294 282 264 294 289 306 305 302 304 307 307
259 266 275 283 288 292 294 292 293 291 289 288 265 253 273 296 312 301 301 306 309 310
267 272 282 288 289 291 296 300 297 289 283 266 252 238 269 301 309 298 300 307 306 306
280 285 290 291 292 295 299 297 287 289 287 264 251 235 266 303 302 297 304 305 303 308
287 289 289 290 290 295 292 291 277 280 287 265 254 259 274 292 293 298 301 304 307 309
290 289 286 286 288 290 294 287 279 266 270 264 256 267 266 280 279 287 300 302 305 303
Height
843 844 846 847 849 850 849 849 849 849 848 847 845 843 841 838 835 834 834 833 831 830
843 845 846 846 847 847 847 847 847 846 845 844 842 840 837 834 831 830 829 828 827 827
841 843 844 845 845 846 846 846 845 844 842 840 837 835 832 829 827 827 825 824 824 823
838 840 843 843 843 844 844 844 842 840 838 835 833 830 828 828 827 825 823 822 821 821
836 838 839 840 841 842 842 841 839 837 834 832 829 826 826 826 825 823 820 820 820 819
834 836 837 838 839 839 838 838 836 833 831 828 826 825 824 823 821 821 821 820 818 817
832 833 835 836 836 836 836 834 833 831 828 825 824 823 822 821 820 820 819 818 816 814
830 831 832 833 833 833 832 830 829 827 825 823 822 820 819 819 819 818 817 815 813 812
828 829 829 829 829 829 828 826 825 824 822 822 820 818 818 818 818 817 814 813 811 810
826 826 827 827 826 825 824 822 821 820 819 818 817 817 816 816 816 814 812 811 810 808
824 824 825 824 824 823 821 819 820 818 816 816 814 814 814 814 813 812 810 808 807 805
822 822 822 821 820 820 818 818 818 817 813 812 812 811 811 811 812 809 808 806 805 803
821 819 818 817 816 816 814 814 813 812 812 808 809 808 808 809 809 807 805 804 802 799
818 816 815 813 813 811 810 810 810 809 809 806 805 806 805 805 806 805 803 802 800 798